Flag for U.S.A. Weather past 2 weeks in Louisville, Kentucky, U.S.A.

Now
64 °F

Passing clouds.


Feels Like: 64 °F
Forecast: 62 / 84 °F
Wind: 5 mph from Southeast

Location: Standiford Field

Current Time: Jul 31, 2014 at 8:05:48 AM

Latest Report: Jul 31, 2014 at 6:56 AM


Visibility: 9 mi

Pressure: 30.08 "Hg

Humidity: 87%

Dew point: 60 °F

Location of LouisvilleLocation

Historic Weather in Louisville — Graph

°F

Louisville temperature yesterday

Maximum temperature yesterday: 82 °F (at 2:56 PM)
Minimum temperature yesterday: 63 °F (at 5:56 AM)
Average temperature yesterday: 73 °F

Past Weeks' High & Low Weather Summary

 TemperatureHumidityPressure
High93 °F (Jul 26, 4:56 PM)97% (Jul 18, 11:56 PM)30.14 "Hg (Jul 18, 11:56 PM)
Low54 °F (Jul 29, 6:56 AM)31% (Jul 17, 12:56 PM)29.72 "Hg (Jul 27, 5:56 PM)
Average74 °F66%30.01 "Hg
* Reported Jul 16 6:56 AM — Jul 31 6:56 AM, Louisville, Weather by CustomWeather, © 2014

Note: Actual official high and low records may vary slightly from our data, if they occured in-between our weather recording intervals... More about our weather records

Advertising

Louisville weather history for previous 24 hours

 ConditionsComfort  
Time TempWeatherWind HumidityBarometerVisibility
6:56 AM
Jul 31
64 °FPassing clouds.5 mph87%30.08 "Hg9 mi
5:56 AM65 °FPassing clouds.3 mph85%30.07 "Hg10 mi
4:56 AM67 °FPassing clouds.No wind79%30.06 "Hg10 mi
3:56 AM69 °FPassing clouds.No wind73%30.06 "Hg10 mi
2:56 AM69 °FPassing clouds.3 mph73%30.06 "Hg10 mi
1:56 AM70 °FPassing clouds.No wind71%30.06 "Hg10 mi
12:56 AM70 °FPassing clouds.3 mph71%30.06 "Hg10 mi
11:56 PM
Jul 30
72 °FPassing clouds.No wind64%30.06 "Hg10 mi
10:56 PM73 °FPassing clouds.3 mph62%30.05 "Hg10 mi
9:56 PM75 °FPassing clouds.6 mph55%30.04 "Hg10 mi
8:56 PM76 °FScattered clouds.7 mph52%30.04 "Hg10 mi
7:56 PM78 °FScattered clouds.10 mph46%30.03 "Hg10 mi
6:56 PM80 °FScattered clouds.10 mph44%30.03 "Hg10 mi
5:56 PM82 °FPassing clouds.10 mph40%30.03 "Hg10 mi
4:56 PM82 °FPassing clouds.8 mph40%30.03 "Hg10 mi
3:56 PM82 °FPassing clouds.12 mph41%30.04 "Hg10 mi
2:56 PM82 °FScattered clouds.7 mph41%30.06 "Hg10 mi
1:56 PM80 °FScattered clouds.9 mph44%30.06 "Hg10 mi
12:56 PM80 °FPassing clouds.9 mph44%30.08 "Hg10 mi
11:56 AM79 °FPassing clouds.10 mph45%30.09 "Hg10 mi
10:56 AM77 °FSunny.3 mph50%30.09 "Hg10 mi
9:56 AM73 °FSunny.5 mph62%30.09 "Hg10 mi
8:56 AM67 °FSunny.No wind73%30.08 "Hg10 mi
Weather by CustomWeather, © 2014

See weather overviewHow to use our weather pages